Вернуться в каталог

STARLINK-32839

АктивенСвязьVLEO
NORAD 63077·PAYLOAD·🇺🇸 United States

Запущен Feb 23, 2025 с Vandenberg Space Force Base

Loading…

Ближайшие Пролёты (ближайшие 24 часа)

TLE

СвежийSource: CelesTrak SupGP

Эпоха: Sep 14, 2026, 21:23 UTC

1 63077C 25037A   26257.89145833  .00045296  00000+0  15764-2 0  2570
2 63077  70.0009 235.9637 0003495 268.4845 285.4631 15.29541179    18

Отслеживайте STARLINK-32839 в реальном времени с AllMySat

Download on the App Store